Weather History for WFALA - September, 2013

Change the Weather History Date:

Thursday, September 5, 2013

  Actual Average Record
Temperature  
Mean Temperature 62 °F -  
Max Temperature 77 °F - - ()
Min Temperature 46 °F - - ()
Degree Days  
Heating Degree Days 4    
Growing Degree Days 12 (Base 50)    
Moisture  
Dew Point 32 °F    
Average Humidity 33    
Maximum Humidity 66    
Minimum Humidity 12    
Precipitation  
Precipitation 0.00 in - - ()
Sea Level Pressure  
Sea Level Pressure 30.35 in    
Wind  
Wind Speed 4 mph ()    
Max Wind Speed 12 mph    
Max Gust Speed -    
T = Trace of Precipitation, MM = Missing Value Source: Averaged Metar Reports

Daily Weather History Graph

Daily Weather History Graph

Search for Another Location

Airport or City:

Trip Planner

Search our weather history database for the weather conditions in past years. The results will help you decide how hot, cold, wet, or windy it might be!

Date:

Astronomy

Sep. 05, 2013 Rise Set
Actual Time 6:16 AM SAST 5:57 PM SAST
Civil Twilight 5:53 AM SAST 6:20 PM SAST
Nautical Twilight 5:26 AM SAST 6:47 PM SAST
Astronomical Twilight 5:00 AM SAST 7:14 PM SAST
Moon 5:54 AM SAST (9/5) 6:04 PM SAST (9/5)
Length of Visible Light 12h 27m
Length of Day
11h 41m
Waning Crescent, 0% of the Moon is Illuminated
Sep 5
Waning Crescent
Sep 5
New
Sep 12
First Quarter
Sep 19
Full
Sep 27
Last Quarter

Hourly Weather History & Observations

Time (SAST) Temp. Windchill Dew Point Humidity Pressure Visibility Wind Dir Wind Speed Gust Speed Precip Events Conditions
12:00 AM 60.8 °F - 15.8 °F 17% 30.36 in - SSE 9.2 mph - N/A   Clear
5:00 AM 48.2 °F - 24.8 °F 40% 30.36 in - Variable 3.5 mph - N/A   Clear
6:00 AM 46.4 °F 43.5 °F 35.6 °F 66% 30.36 in - SSW 5.8 mph - N/A   Clear
7:00 AM 46.4 °F 45.2 °F 30.2 °F 53% 30.39 in - WSW 3.5 mph - N/A   Clear
8:00 AM 51.8 °F - 32.0 °F 47% 30.42 in - Variable 2.3 mph - N/A   Clear
8:16 AM 55.4 °F - 35.6 °F 47% 30.42 in - Variable 2.3 mph - N/A   Clear
8:32 AM 59.0 °F - 39.2 °F 48% 30.42 in - Variable 2.3 mph - N/A   Clear
9:00 AM 62.6 °F - 44.6 °F 52% 30.42 in - Variable 2.3 mph - N/A   Clear
10:00 AM 64.4 °F - 44.6 °F 49% 30.42 in - North 4.6 mph - N/A   Clear
10:47 AM 68.0 °F - 41.0 °F 37% 30.39 in - Variable 3.5 mph - N/A   Clear
11:00 AM 69.8 °F - 39.2 °F 33% 30.39 in - Variable 2.3 mph - N/A   Clear
12:00 PM 71.6 °F - 28.4 °F 20% 30.36 in - East 5.8 mph - N/A   Clear
1:00 PM 75.2 °F - 26.6 °F 17% 30.33 in - NNE 4.6 mph - N/A   Clear
2:00 PM 77.0 °F - 23.0 °F 13% 30.30 in - Variable 4.6 mph - N/A   Clear
3:00 PM 77.0 °F - 21.2 °F 12% 30.27 in - WNW 8.1 mph - N/A   Clear
4:00 PM 77.0 °F - 23.0 °F 13% 30.27 in - NNW 8.1 mph - N/A   Clear
5:00 PM 75.2 °F - 28.4 °F 18% 30.27 in - NNW 11.5 mph - N/A   Clear
6:00 PM 71.6 °F - 30.2 °F 22% 30.27 in - NNW 5.8 mph - N/A   Clear
7:00 PM 68.0 °F - 33.8 °F 28% 30.27 in - Variable 2.3 mph - N/A   Clear
8:00 PM 66.2 °F - 33.8 °F 30% 30.30 in - SSW 4.6 mph - N/A   Clear
9:00 PM 62.6 °F - 33.8 °F 34% 30.33 in - Variable 3.5 mph - N/A   Clear
10:00 PM 59.0 °F - 28.4 °F 31% 30.33 in - Calm Calm - N/A   Clear